カタログに戻る

CZ-6A DEB

運用中PO
NORAD 61360·DEBRIS·🇨🇳 China

打ち上げ Aug 6, 2024 から Taiyuan Satellite Launch Center

Loading…

次のパス (今後24時間)

TLE

最新Source: Space-Track

元期: Sep 14, 2026, 00:22 UTC

1 61360U 24140VZ  26257.01543973  .00000611  00000-0  27917-3 0  9998
2 61360  89.0102 266.1124 0047240 262.3087  97.2737 14.19803125105011

AllMySatでCZ-6A DEBをリアルタイム追跡

Download on the App Store